+ View the NASA Portal
+ Center for Near-Earth Object Studies
IMPORTANT:
The SSD Announcement email list is now available. Major changes are coming in the near future, including possible hostname and/or URL changes. To be notified of such changes, subscribe to this email list.
Please visit
this page
for more details.
Don't show this message again
JPL Small-Body Database Browser
Search:
[
help
]
277606 (2006 AE68)
Classification:
Main-belt Asteroid
SPK-ID:
2277606
[
Ephemeris
|
Orbit Diagram
|
Orbital Elements
|
Mission Design
|
Physical Parameters
|
Discovery Circumstances
]
[ show orbit diagram ]
Orbital Elements at Epoch 2458600.5 (2019-Apr-27.0) TDB
Reference:
JPL 11
(heliocentric ecliptic J2000)
Element
Value
Uncertainty (1-sigma)
Units
e
.0192712908940592
7.0019e-08
a
2.680654425024414
2.6441e-08
au
q
2.628994753813322
1.9758e-07
au
i
2.562713964103841
7.7463e-06
deg
node
145.1701708586068
0.00013453
deg
peri
312.0247243264378
0.00037167
deg
M
38.3818318930911
0.00033799
deg
t
p
2458429.583940618182
(2018-Nov-07.08394062)
0.0015055
TDB
period
1603.096526211663
4.39
2.3718e-05
6.494e-08
d
yr
n
.2245653921106856
3.3225e-09
deg/d
Q
2.732314096235506
2.695e-08
au
Orbit Determination Parameters
# obs. used (total)
183
data-arc span
6628 days (18.15 yr)
first obs. used
2000-12-16
last obs. used
2019-02-08
planetary ephem.
DE431
SB-pert. ephem.
SB431-N16
condition code
0
norm. resid. RMS
.58035
source
ORB
producer
Otto Matic
solution date
2019-Jul-14 06:25:29
Additional Information
Earth MOID
= 1.6468 au
Jupiter MOID
= 2.27555 au
T_jup
= 3.375
[ show covariance matrix ]
[
Ephemeris
|
Orbit Diagram
|
Orbital Elements
|
Mission Design
|
Physical Parameters
|
Discovery Circumstances
]
Physical Parameter Table
Parameter
Symbol
Value
Units
Sigma
Reference
Notes
absolute magnitude
H
16.8
n/a
MPO423065
277606 (2006 AE68)
Discovered 2006-Jan-05 by Mt. Lemmon Survey at Mount Lemmon
Reference:
20110517/Numbers.arc
Last Updated:
2011-05-20
Alternate Designations
2006 AE68
= 2002 EU137
[
Ephemeris
|
Orbit Diagram
|
Orbital Elements
|
Mission Design
|
Physical Parameters
|
Discovery Circumstances
]
2019-Dec-10 06:22 UT
(server date/time)
Site Manager:
Ryan S. Park
Webmaster
:
Alan B. Chamberlin